Stations météo

réclame
Mon MeteoGroup
Oostende Airport, Belgique (6407): Température de l'air & dewpoint: 18.11.2017 15:00:00 - 24.11.2017 15:00:00 (CET)Oostende Airport, Belgique (6407): Vitesse du vent & gusts: 18.11.2017 15:00:00 - 24.11.2017 15:00:00 (CET)Oostende Airport, Belgique (6407): Direction du vent: 18.11.2017 15:00:00 - 24.11.2017 15:00:00 (CET)Oostende Airport, Belgique (6407): reduced air pressure: 18.11.2017 15:00:00 - 24.11.2017 15:00:00 (CET)Oostende Airport, Belgique (6407): visibility: 18.11.2017 15:00:00 - 24.11.2017 15:00:00 (CET)
Date & Time tt [°C] td [°C] ff [km/h] ff [knt] fx [km/h] fx [knt] dd ppp [hPa] vv [km]
24.11.2017 15:00:00 9,0 4,5 9 5 18 10 NW 1011,8 10
24.11.2017 14:00:00 9,2 4,2 15 8 22 12 W 1011,9 10
24.11.2017 13:00:00 9,3 4,9 11 6 - - W 1011,6 10
24.11.2017 12:00:00 9,7 6,4 13 7 18 10 WSW 1011,3 10
24.11.2017 11:00:00 7,5 5,5 15 8 18 10 SSW 1010,8 10
24.11.2017 10:00:00 6,8 5,0 11 6 - - SW 1010,2 10
24.11.2017 09:00:00 5,6 4,3 15 8 18 10 SSW 1009,3 10
24.11.2017 08:00:00 6,4 4,6 8 4 11 6 SSW 1008,4 10
24.11.2017 07:00:00 6,8 4,8 5 3 - - SW 1007,7 10
24.11.2017 06:00:00 6,8 4,8 5 3 7 4 W 1007,1 8
24.11.2017 05:00:00 6,8 5,1 4 2 14 8 ESE 1006,6 10
24.11.2017 04:00:00 7,4 5,3 11 6 - - NW 1006,9 8
24.11.2017 03:00:00 7,6 5,8 4 2 14 8 WSW 1007,3 8
24.11.2017 02:00:00 7,4 5,8 9 5 18 10 SSW 1007,7 6
24.11.2017 01:00:00 7,8 5,3 13 7 - - S 1007,6 10
24.11.2017 00:00:00 7,5 5,3 15 8 22 12 SSW 1008,1 10
23.11.2017 23:00:00 7,4 5,1 15 8 22 12 SSW 1008,3 10
23.11.2017 22:00:00 6,7 4,4 11 6 - - S 1008,3 10
23.11.2017 21:00:00 6,9 4,2 18 10 25 14 SSW 1008,1 10
23.11.2017 20:00:00 7,4 4,4 21 11 32 18 SSW 1007,5 10
23.11.2017 19:00:00 7,6 4,7 21 11 - - SSW 1006,9 10
23.11.2017 18:00:00 7,8 4,3 18 10 25 14 SW 1006,4 10
23.11.2017 17:00:00 8,6 4,7 21 11 43 23 SW 1005,6 10
23.11.2017 16:00:00 10,1 4,0 28 15 - - WSW 1004,8 10
23.11.2017 15:00:00 10,6 4,7 35 19 50 27 WSW 1004,1 10
23.11.2017 14:00:00 10,6 5,1 34 18 54 29 WSW 1002,9 10
23.11.2017 13:00:00 11,0 8,3 29 16 - - W 1001,5 10
23.11.2017 12:00:00 11,3 9,6 39 21 68 37 WSW 1000,1 2,0
23.11.2017 11:00:00 13,2 10,7 29 16 47 25 SSW 998,4 10
23.11.2017 10:00:00 12,7 10,8 29 16 - - SSW 997,4 10
23.11.2017 09:00:00 11,6 9,9 37 20 61 33 SSW 995,9 10
23.11.2017 08:00:00 12,6 8,3 39 21 54 29 SSW 994,2 10
23.11.2017 07:00:00 11,5 6,3 31 17 - - S 993,6 10
23.11.2017 06:00:00 11,5 5,7 35 19 54 29 S 993,3 10
23.11.2017 05:00:00 11,3 5,2 39 21 58 31 S 993,7 10
23.11.2017 04:00:00 11,7 4,8 31 17 - - S 994,8 10
23.11.2017 03:00:00 11,5 5,1 35 19 54 29 S 995,5 10
23.11.2017 02:00:00 11,4 5,1 37 20 54 29 S 996,3 10
23.11.2017 01:00:00 10,8 5,2 22 12 - - S 996,7 10
23.11.2017 00:00:00 10,8 5,1 28 15 47 25 S 997,3 10
22.11.2017 23:00:00 10,4 4,9 31 17 50 27 S 997,6 10
22.11.2017 22:00:00 10,2 4,7 28 15 - - S 998,4 10
22.11.2017 21:00:00 9,9 4,7 28 15 47 25 S 998,6 10
22.11.2017 20:00:00 10,2 5,0 29 16 50 27 S 999,5 10
22.11.2017 19:00:00 10,1 5,2 29 16 - - S 1000,2 10
22.11.2017 18:00:00 10,6 5,6 24 13 40 21 S 1001,5 10
22.11.2017 17:00:00 11,1 6,4 26 14 47 25 S 1001,7 10
22.11.2017 16:00:00 12,2 7,0 21 11 - - S 1002,2 10
22.11.2017 15:00:00 13,1 7,7 21 11 43 23 S 1003,1 10
22.11.2017 14:00:00 12,3 8,0 26 14 50 27 S 1004,0 10
22.11.2017 13:00:00 12,1 7,8 29 16 - - S 1004,5 10
22.11.2017 12:00:00 11,8 7,8 28 15 40 21 S 1005,2 10
22.11.2017 11:00:00 10,6 7,6 24 13 36 19 S 1005,8 10
22.11.2017 10:00:00 10,0 7,6 22 12 - - S 1006,1 10
22.11.2017 09:00:00 10,3 7,8 22 12 43 23 S 1006,3 10
22.11.2017 08:00:00 10,5 7,7 22 12 36 19 SSW 1006,3 10
22.11.2017 07:00:00 10,5 7,7 18 10 - - S 1006,2 10
22.11.2017 06:00:00 10,8 7,9 24 13 43 23 S 1006,4 10
22.11.2017 05:00:00 10,4 7,8 28 15 40 21 SSW 1006,4 10
22.11.2017 04:00:00 10,8 7,9 25 14 - - SSW 1006,8 16
22.11.2017 03:00:00 11,1 8,1 28 15 36 19 SSW 1007,5 10
22.11.2017 02:00:00 11,0 8,0 22 12 40 21 SSW 1007,7 10
22.11.2017 01:00:00 10,7 7,9 24 13 - - SSW 1008,3 10
22.11.2017 00:00:00 10,8 7,8 15 8 32 18 S 1008,7 10
21.11.2017 23:00:00 10,7 8,0 22 12 40 21 S 1009,0 10
21.11.2017 22:00:00 11,0 8,3 28 15 - - SSW 1009,4 10
21.11.2017 21:00:00 10,9 8,5 26 14 36 19 SSW 1009,8 10
21.11.2017 20:00:00 10,9 8,6 24 13 36 19 SSW 1010,3 10
21.11.2017 19:00:00 10,9 8,6 24 13 - - SSW 1010,4 10
21.11.2017 18:00:00 11,1 8,6 26 14 36 19 SSW 1010,7 10
21.11.2017 17:00:00 11,2 8,9 22 12 32 18 SSW 1010,9 10
21.11.2017 16:00:00 11,5 9,1 22 12 - - SSW 1011,3 10
21.11.2017 15:00:00 11,9 9,4 24 13 36 19 SSW 1011,8 10
21.11.2017 14:00:00 12,0 9,5 26 14 36 19 SW 1012,3 10
21.11.2017 13:00:00 12,4 9,9 24 13 - - SW 1012,8 10
21.11.2017 12:00:00 12,6 10,1 24 13 36 19 SW 1013,0 10
21.11.2017 11:00:00 12,5 10,2 24 13 43 23 SW 1013,1 10
21.11.2017 10:00:00 12,3 10,1 29 16 - - WSW 1013,0 10
21.11.2017 09:00:00 12,3 10,0 34 18 50 27 WSW 1012,7 10
21.11.2017 08:00:00 11,9 10,3 31 17 47 25 WSW 1012,4 8
21.11.2017 07:00:00 11,5 10,4 34 18 - - WSW 1012,5 5
21.11.2017 06:00:00 11,6 10,4 31 17 47 25 WSW 1012,7 5
21.11.2017 05:00:00 11,6 10,2 29 16 43 23 WSW 1012,8 8
21.11.2017 04:00:00 11,4 10,1 24 13 - - WSW 1013,0 6
21.11.2017 03:00:00 11,5 10,2 26 14 43 23 WSW 1013,2 10
21.11.2017 02:00:00 11,5 10,0 29 16 43 23 WSW 1013,3 10
21.11.2017 01:00:00 11,5 10,1 28 15 - - WSW 1013,5 10
21.11.2017 00:00:00 11,4 9,9 26 14 40 21 WSW 1013,3 10
20.11.2017 23:00:00 11,3 9,9 28 15 43 23 WSW 1013,3 10
20.11.2017 22:00:00 11,1 9,6 29 16 - - WSW 1013,3 10
20.11.2017 21:00:00 11,3 9,8 34 18 50 27 WSW 1013,0 10
20.11.2017 20:00:00 11,5 10,1 34 18 50 27 WSW 1013,1 10
20.11.2017 19:00:00 11,4 9,8 35 19 - - WSW 1012,8 10
20.11.2017 18:00:00 11,6 10,2 37 20 54 29 WSW 1013,1 10
20.11.2017 17:00:00 11,2 9,9 35 19 58 31 WSW 1013,2 3,0
20.11.2017 16:00:00 11,6 9,6 37 20 - - WSW 1013,4 10
20.11.2017 15:00:00 11,5 9,3 37 20 58 31 WSW 1013,7 10
20.11.2017 14:00:00 9,4 7,9 18 10 29 16 SW 1014,7 7
20.11.2017 13:00:00 9,0 7,6 21 11 - - SSW 1015,5 6
20.11.2017 12:00:00 7,7 6,3 21 11 32 18 SSW 1016,7 4,2
20.11.2017 11:00:00 6,7 5,3 24 13 36 19 SSW 1017,2 6
20.11.2017 10:00:00 6,2 4,7 24 13 - - SSW 1017,7 8
20.11.2017 09:00:00 4,9 3,2 18 10 29 16 SSW 1018,5 6
20.11.2017 08:00:00 4,3 2,1 15 8 22 12 S 1019,6 10
20.11.2017 07:00:00 3,9 1,5 11 6 - - SSW 1020,2 10
20.11.2017 06:00:00 3,5 1,3 13 7 18 10 SSW 1020,6 10
20.11.2017 05:00:00 3,5 1,2 13 7 18 10 SSW 1020,9 10
20.11.2017 04:00:00 3,4 1,3 11 6 - - SSW 1021,5 10
20.11.2017 03:00:00 2,9 0,9 11 6 18 10 SSW 1022,3 10
20.11.2017 02:00:00 3,2 1,2 13 7 18 10 SSW 1022,4 10
20.11.2017 01:00:00 3,2 1,1 13 7 - - SSW 1023,4 10
20.11.2017 00:00:00 3,0 1,1 13 7 14 8 SSW 1023,7 10
19.11.2017 23:00:00 2,3 0,7 13 7 14 8 SSW 1023,8 10
19.11.2017 22:00:00 5,4 0,8 11 6 - - WNW 1024,0 10
19.11.2017 21:00:00 5,9 0,9 16 9 25 14 W 1023,6 10
19.11.2017 20:00:00 6,5 1,4 18 10 25 14 W 1023,5 20
19.11.2017 19:00:00 6,5 1,1 15 8 - - WNW 1023,5 10
19.11.2017 18:00:00 6,8 1,5 16 9 22 12 WNW 1023,2 10
19.11.2017 17:00:00 7,0 1,5 16 9 25 14 WNW 1022,9 10
19.11.2017 16:00:00 8,0 2,3 18 10 - - WNW 1022,9 10
19.11.2017 15:00:00 8,1 2,5 16 9 25 14 WNW 1022,9 10
19.11.2017 14:00:00 8,0 2,7 16 9 32 18 NW 1022,8 10
19.11.2017 13:00:00 8,2 3,3 22 12 - - NW 1022,6 10
19.11.2017 12:00:00 8,4 3,3 21 11 29 16 NW 1022,5 10
19.11.2017 11:00:00 7,8 2,7 22 12 32 18 NW 1022,0 10
19.11.2017 10:00:00 7,0 2,4 21 11 - - NW 1021,5 10
19.11.2017 09:00:00 6,9 1,9 21 11 36 19 NW 1021,0 10
19.11.2017 08:00:00 6,5 0,9 22 12 40 21 NW 1020,2 10
19.11.2017 07:00:00 6,5 0,7 28 15 - - NW 1020,0 10
19.11.2017 06:00:00 6,7 0,1 26 14 40 21 NW 1019,7 10
19.11.2017 05:00:00 7,2 -0,9 28 15 40 21 NW 1019,5 10
19.11.2017 04:00:00 7,2 -1,1 28 15 - - NNW 1019,3 10
19.11.2017 03:00:00 7,6 -1,0 31 17 43 23 NW 1019,1 10
19.11.2017 02:00:00 7,9 0,7 28 15 43 23 NNW 1019,0 10
19.11.2017 01:00:00 8,2 2,2 26 14 - - NW 1018,8 10
19.11.2017 00:00:00 8,4 2,2 26 14 43 23 NW 1018,8 10
18.11.2017 23:00:00 9,0 2,9 28 15 43 23 NNW 1018,8 10
18.11.2017 22:00:00 9,3 4,5 26 14 - - WNW 1018,6 10
18.11.2017 21:00:00 9,1 4,8 26 14 32 18 WNW 1018,7 10
18.11.2017 20:00:00 9,2 5,9 24 13 32 18 W 1018,9 10
18.11.2017 19:00:00 9,1 5,3 22 12 - - W 1019,1 10
18.11.2017 18:00:00 9,3 5,0 22 12 36 19 W 1019,7 10
18.11.2017 17:00:00 9,0 6,0 24 13 43 23 W 1019,8 10
18.11.2017 16:00:00 8,9 5,8 31 17 - - W 1020,3 10
18.11.2017 15:00:00 9,3 5,9 34 18 47 25 W 1020,8 10

tt = Température de l'air
td = dewpoint
ff = Vitesse du vent
fx = gusts
dd = Direction du vent
ppp = reduced air pressure
vv = visibility

stations d'obs. à proximité